Location: Carrizalito
(10.3833°N, 67.0217°W)
Time: 17:34:55
(UTC+00:00)

Meteor 1-11 Rocket - Pass Details

Date: 05 July 2022
Orbit: 830 x 916 km, 81.2° (Epoch: 18 August)

Event Time Altitude Azimuth Distance (km) Brightness Sun altitude
Exits shadow 09:02:14 23° 228° (SW) 1,824 4.8 -16.2°
Maximum altitude 09:05:06 36° 277° (W) 1,405 4.4 -15.6°
Drops below altitude 10° 09:10:30 10° 342° (NNW) 2,592 6.3 -14.4°
Sets 09:13:09 0° 351° (N) 3,527 7.2 -13.8°
